{"data":{"norad_id":66572,"intl_designator":"2025-268R","name":"STARLINK-35870","alt_names":[],"object_type":"PAYLOAD","status":"ACTIVE","operator":null,"country":"US","launch_date":"2025-11-21","launch_site_code":"AFETR","launch_vehicle":null,"mission":null,"orbit_class":"UNKNOWN","rcs_meters":null,"size_class":null,"mass_kg":null,"dimensions":null,"purposes":["comms"],"wikipedia_slug":null,"has_3d_model":false,"image_url":null,"decayed_at":null,"tle_current":{"epoch":"2026-09-20T15:43:25.622688Z","epoch_age_seconds":73533,"freshness":"FRESH","line1":"1 66572U 25268R   26263.65515767  .00013098  00000+0  48454-3 0  9998","line2":"2 66572  43.0014 326.3126 0001764 288.6879  71.3781 15.27588352 47777","mean_motion":15.27588352,"eccentricity":0.0001764,"inclination_deg":43.0014,"raan_deg":326.3126,"arg_perigee_deg":288.6879,"mean_anomaly_deg":71.3781,"bstar":0.00048454,"rev_number":4777,"period_min":94.266233315715,"perigee_km":481.81377844519,"apogee_km":484.23439607677,"semimajor_km":6861.161087261,"source":"CELESTRAK","updated_at":"2026-09-21T09:00:35.972624Z"}}}